Location: Nitra
(0.0000°N, 18.0833°E)
Time: 08:43:30
(UTC+01:00)

SL-08 RB Rocket - Pass Details

Date: 25 September 2022
Orbit: 644 x 683 km, 97.7° (Epoch: 28 November)

Event Time Altitude Azimuth Distance (km) Brightness Sun altitude
Rises 18:59:38 0° 165° (SSE) 2,956 6.9 -5.1°
Reaches altitude 10° 19:01:51 10° 164° (SSE) 2,047 6.1 -5.6°
Maximum altitude 19:06:18 74° 79° (E) 678 3.6 -6.8°
Drops below altitude 10° 19:10:47 10° 354° (N) 2,057 6.3 -7.9°
Sets 19:13:00 0° 352° (N) 2,972 7.2 -8.4°
